Belvidere, Illinois, United States (61008)
Lat: 42.26N, Lon: 88.84W
Wx Zone: ILZ004
Local Info
Past Weather Observations for Friday, May 20, 2016

NOTE: This archive is for the closest National Weather Service station to Belvidere. Information may differ from the station used for current weather conditions.

Click here for Long-term Archive

Time Weather Temperature Dewpoint Humidity Pressure Winds Precip Visibility
23:54
Overcast
55°F / 13°C 46°F / 8°C 72% 30.15 in
(1021 mb)
N 4.6 mph
(N 7 kph)
- 10SM
22:54
Overcast
55°F / 13°C 46°F / 8°C 72% 30.15 in
(1021 mb)
Calm - 10SM
21:54
Overcast
57°F / 14°C 45°F / 7°C 63% 30.15 in
(1021 mb)
Calm - 10SM
20:54
Overcast
59°F / 15°C 45°F / 7°C 59% 30.15 in
(1021 mb)
NE 3.5 mph
(NE 6 kph)
- 10SM
19:54
Overcast
63°F / 17°C 43°F / 6°C 49% 30.12 in
(1020 mb)
Calm - 10SM
18:54
Overcast
64°F / 18°C 41°F / 5°C 43% 30.12 in
(1020 mb)
ENE 3.5 mph
(ENE 6 kph)
- 10SM
17:54
Overcast
64°F / 18°C 41°F / 5°C 43% 30.12 in
(1020 mb)
E 4.6 mph
(E 7 kph)
- 10SM
16:54
Overcast
66°F / 19°C 39°F / 4°C 37% 30.12 in
(1020 mb)
E 9.2 mph
(E 15 kph)
- 10SM
15:54
Overcast
66°F / 19°C 41°F / 5°C 40% 30.12 in
(1020 mb)
E 9.2 mph
(E 15 kph)
- 10SM
14:54
Overcast
68°F / 20°C 39°F / 4°C 35% 30.15 in
(1021 mb)
E 10.4 mph
(E 17 kph)
- 10SM
13:54
Overcast
70°F / 21°C 39°F / 4°C 33% 30.15 in
(1021 mb)
SE 8.1 mph
(SE 13 kph)
- 10SM
12:54
Overcast
70°F / 21°C 39°F / 4°C 33% 30.15 in
(1021 mb)
ESE 11.5 mph
(ESE 19 kph)
- 10SM
11:54
Overcast
68°F / 20°C 39°F / 4°C 35% 30.15 in
(1021 mb)
SE 9.2 mph
(SE 15 kph)
- 10SM
10:54
Overcast
70°F / 21°C 43°F / 6°C 38% 30.18 in
(1022 mb)
SE 11.5 mph
(SE 19 kph)
- 10SM
09:54
Overcast
70°F / 21°C 43°F / 6°C 38% 30.18 in
(1022 mb)
SE 9.2 mph
(SE 15 kph)
- 10SM
08:54
Overcast
66°F / 19°C 43°F / 6°C 43% 30.18 in
(1022 mb)
SE 8.1 mph
(SE 13 kph)
- 10SM
07:54
Overcast
63°F / 17°C 43°F / 6°C 49% 30.21 in
(1023 mb)
SE 8.1 mph
(SE 13 kph)
- 10SM
06:54
Overcast
57°F / 14°C 39°F / 4°C 51% 30.21 in
(1023 mb)
SE 6.9 mph
(SE 11 kph)
- 10SM
05:54
Overcast
52°F / 11°C 39°F / 4°C 62% 30.21 in
(1023 mb)
SE 3.5 mph
(SE 6 kph)
- 10SM
04:54
Overcast
48°F / 9°C 36°F / 2°C 62% 30.18 in
(1022 mb)
SSE 4.6 mph
(SSE 7 kph)
- 10SM
03:54
Overcast
48°F / 9°C 36°F / 2°C 62% 30.18 in
(1022 mb)
Calm - 10SM
02:54
Partly Cloudy
48°F / 9°C 34°F / 1°C 58% 30.18 in
(1022 mb)
SE 3.5 mph
(SE 6 kph)
- 10SM
01:54
Partly Cloudy
52°F / 11°C 32°F / 0°C 47% 30.18 in
(1022 mb)
SE 3.5 mph
(SE 6 kph)
- 10SM
00:54
Partly Cloudy
52°F / 11°C 32°F / 0°C 47% 30.18 in
(1022 mb)
SE 4.6 mph
(SE 7 kph)
- 10SM
Time Weather Temperature Dewpoint Humidity Pressure Winds Precip Visibility


Weather for websites

WeatherForYou.com, LLC is not responsible for any damages or problems caused by this service. Current weather conditions are obtained from the closest station including government and personal stations which may have varying degrees of accuracy. Weather forecasts are derived from the NOAA NDFD. Like all things, this site belongs to Jesus Christ... He just trusts us to maintain it. If you have any questions or comments email webmaster@weatherforyou.com

Copyright © 2016, WeatherForYou.com LLC. All rights reserved.